Theta_e
323 321 320 318 317 317 317 317 316 316 316 316 315 315 316 316 316 317 318 317 317 317 317 318 318 320 319 312 309 332 334 336 331 331 324 321 318 318 318 325 327 330 329 329 328 333 333
321 319 318 318 317 317 316 316 316 316 315 315 315 315 316 316 316 316 316 316 315 316 317 318 319 321 315 305 326 330 326 330 327 325 320 320 316 320 318 323 325 328 328 325 326 324 333
318 318 318 317 316 316 316 315 315 314 314 315 315 315 315 316 316 316 316 315 314 315 316 318 320 321 314 311 330 326 331 326 323 321 317 320 321 319 321 319 326 325 321 326 327 329 330
318 318 317 316 316 315 315 315 315 315 315 315 315 316 315 316 316 315 314 313 315 317 317 318 322 322 312 326 330 326 328 323 321 322 320 321 324 322 322 326 323 320 320 316 328 333 332
317 317 316 316 316 315 315 315 315 315 316 316 316 316 316 315 315 313 313 313 321 320 319 322 322 320 312 327 320 322 324 318 318 318 319 319 322 319 320 316 315 318 313 313 324 333 331
318 316 316 316 316 316 316 316 315 316 316 316 316 316 315 315 313 312 313 313 319 323 323 324 322 314 317 315 321 321 322 319 315 314 312 312 314 312 314 313 307 313 315 314 319 327 329
317 316 316 316 316 316 316 316 316 316 316 316 316 316 314 313 313 312 313 318 314 314 315 308 308 309 315 319 323 319 322 316 315 312 306 309 307 304 310 313 317 317 315 314 322 327 321
317 316 316 316 315 316 315 316 316 316 316 316 316 315 314 312 312 311 317 312 310 311 306 312 310 310 314 317 311 316 322 313 310 305 309 305 303 309 314 316 315 315 313 310 315 317 315
317 316 316 315 316 316 315 316 316 316 316 316 315 314 313 311 311 313 315 312 316 314 306 306 309 309 311 314 311 313 319 316 309 306 306 303 306 311 312 315 312 314 313 311 311 313 319
317 316 315 316 315 315 315 315 316 315 315 315 314 313 311 310 308 318 313 316 316 315 301 301 304 309 310 312 308 318 320 317 312 306 306 306 311 309 310 311 313 309 316 312 310 309 309
317 316 315 316 315 315 315 315 315 315 315 315 314 312 310 307 316 313 314 317 316 312 291 301 305 312 312 307 308 310 319 316 311 309 308 305 307 309 309 311 314 310 316 314 311 309 307
317 316 316 316 315 315 315 315 315 315 315 314 313 311 310 312 316 315 317 317 312 299 288 298 303 303 303 306 307 310 311 313 316 311 311 309 313 315 314 315 315 314 312 311 312 310 302
317 316 316 315 315 315 315 315 315 314 314 313 311 309 311 315 315 318 318 313 299 294 301 297 298 302 302 302 304 307 306 306 306 303 303 305 308 308 310 313 315 312 308 301 301 300 300
317 316 315 315 314 315 315 316 315 315 313 312 308 307 312 317 318 318 316 306 294 296 298 302 300 301 299 303 303 304 304 303 304 304 305 299 296 304 305 308 309 309 308 302 296 298 301
317 316 316 315 314 315 315 315 315 314 313 310 307 320 320 317 318 317 310 300 296 296 299 299 300 297 298 301 302 303 303 301 302 304 302 302 297 303 303 306 306 308 305 309 303 306 302
317 315 316 315 315 315 316 315 315 314 312 310 321 318 315 317 317 314 308 296 299 301 301 301 296 299 296 299 299 300 300 302 301 304 305 303 297 301 302 304 306 308 311 302 303 298 297
317 315 316 315 315 315 316 316 315 313 311 309 317 312 315 318 316 312 302 299 300 302 302 300 298 298 299 297 300 298 297 301 303 303 305 304 303 299 302 301 301 303 304 305 306 304 299
317 315 315 315 315 316 316 316 314 311 309 310 314 307 316 317 309 309 301 301 298 302 304 302 302 301 300 300 299 298 296 299 304 304 300 303 303 298 299 301 302 302 304 305 301 301 304
317 315 315 315 315 316 316 315 313 311 309 317 312 309 317 316 302 301 302 300 302 301 301 300 299 301 302 300 298 300 299 301 304 303 302 303 301 295 296 299 301 301 302 303 304 306 303
317 315 315 315 315 316 316 315 313 311 310 315 311 304 308 310 309 303 301 299 298 302 301 302 301 302 301 300 303 299 299 300 303 303 303 304 302 299 297 298 301 298 298 300 303 301 303
317 313 314 315 316 316 316 315 313 311 310 315 310 302 304 301 302 302 302 299 297 297 301 303 300 300 299 298 299 298 300 301 303 302 303 303 297 300 299 298 298 297 296 297 300 301 301
317 314 314 315 315 316 316 316 314 312 309 316 309 307 307 303 302 302 299 299 297 298 299 297 298 299 301 299 299 297 300 302 300 303 302 302 297 299 296 296 296 295 296 296 297 298 301
316 314 313 314 315 316 316 316 315 312 312 315 317 313 310 299 302 301 299 298 297 299 300 300 299 299 298 299 302 303 304 303 303 302 299 300 299 297 293 295 294 292 297 297 297 299 301
317 313 313 314 314 315 316 317 316 313 312 322 318 314 310 301 304 301 300 301 300 300 299 301 302 300 302 306 305 304 303 302 302 302 303 298 299 298 296 294 286 296 300 299 298 301 302
317 313 312 313 314 315 316 317 316 314 312 321 322 316 311 304 304 302 301 301 303 303 302 302 302 305 306 304 299 296 296 297 297 299 301 302 299 295 291 291 293 294 297 298 298 299 304
317 313 311 312 314 314 316 317 317 315 313 321 319 321 314 309 305 305 303 303 303 302 302 302 306 308 305 303 301 293 293 295 292 294 300 298 301 296 293 289 287 297 301 303 302 295 304
317 313 311 312 313 314 315 316 316 316 314 319 319 321 316 308 308 308 306 305 306 304 304 303 303 302 305 301 299 297 295 296 292 292 293 295 296 293 293 291 295 301 302 304 292 297 304
316 313 311 311 313 313 314 315 315 315 315 315 318 321 316 310 311 310 309 307 306 306 304 304 302 301 301 298 298 297 297 293 295 298 296 295 294 293 295 292 289 304 302 296 303 306 305
316 314 311 311 312 313 313 315 315 315 315 313 316 319 320 312 312 316 315 314 312 311 311 307 304 301 304 302 301 300 297 297 296 293 299 293 299 298 297 299 305 306 305 307 305 302 304
Wind_Speed
14 13 12 13 12 13 13 14 15 14 14 13 14 14 15 15 16 16 15 14 14 12 11 10 7 5 6 9 0 8 15 16 19 17 19 17 15 12 12 8 7 10 4 1 2 4 3
14 14 14 14 15 15 16 16 16 15 16 15 15 15 15 15 16 16 17 15 14 13 11 10 6 6 7 8 3 11 15 18 18 19 17 13 11 7 8 9 9 4 5 4 4 5 7
15 15 15 15 16 15 16 17 17 17 16 17 17 17 15 15 15 16 16 17 15 14 11 9 7 10 7 7 1 12 14 13 16 15 16 13 7 11 6 7 6 5 8 7 6 10 8
16 16 17 16 16 15 15 16 17 17 18 19 19 17 16 15 15 15 16 18 15 12 9 9 8 9 1 2 8 13 11 11 9 10 11 8 8 6 10 5 9 11 10 9 11 10 8
16 17 17 17 16 16 16 16 17 17 17 16 17 18 16 15 14 14 14 16 8 7 9 10 9 8 8 5 11 12 12 13 12 10 8 7 10 10 7 13 11 10 11 10 10 3 9
16 18 17 17 17 15 15 16 18 17 16 16 17 16 16 14 13 13 10 11 6 14 9 7 4 7 6 9 12 11 9 12 13 11 12 10 9 10 11 13 14 15 11 12 13 8 11
17 19 19 18 17 17 16 18 18 18 18 18 17 16 16 15 12 10 10 6 8 8 9 6 4 3 14 10 15 11 15 15 12 13 11 14 11 16 17 17 8 12 11 12 10 8 7
18 19 19 19 19 18 18 19 19 19 20 19 17 14 14 13 12 6 6 5 6 7 4 9 7 6 4 13 11 16 18 12 16 16 12 11 16 14 12 8 9 11 12 14 10 6 7
18 18 18 19 18 18 19 19 19 18 18 17 15 13 12 12 8 5 3 5 6 5 8 7 5 6 10 13 13 21 18 9 16 16 16 14 11 11 14 13 13 13 14 11 13 6 2
17 18 19 18 18 18 19 20 20 19 18 16 15 14 12 12 3 1 3 4 6 7 7 8 9 8 9 10 14 20 19 11 7 14 14 11 7 17 17 16 16 16 4 6 9 11 10
17 17 19 18 19 19 20 21 20 20 17 16 15 13 9 5 6 4 5 8 2 6 6 4 9 6 11 11 20 17 18 7 12 10 10 10 15 18 17 16 14 5 10 10 8 10 4
17 18 18 20 21 20 21 21 21 21 18 17 16 13 9 5 4 3 7 6 6 9 6 7 4 11 15 11 10 15 14 11 2 12 15 6 11 15 11 10 12 8 10 9 8 10 12
16 17 18 19 20 20 21 22 21 22 19 17 16 11 5 4 5 7 7 6 8 4 4 5 4 12 15 13 11 19 15 12 8 13 13 11 11 4 4 14 13 14 16 11 12 10 9
17 17 18 19 21 21 21 22 22 21 20 18 14 6 7 5 8 6 6 9 2 3 6 2 1 9 11 13 10 11 13 11 6 8 14 12 13 6 2 7 11 19 18 10 13 13 12
16 17 18 19 21 22 22 23 23 22 22 17 13 5 3 7 4 5 8 2 7 5 5 6 7 11 11 7 8 9 7 6 6 8 5 11 8 5 3 1 6 19 16 7 8 11 9
16 17 18 19 20 22 23 23 24 22 20 15 4 4 7 9 3 7 1 5 5 8 6 4 4 5 10 8 10 7 4 5 3 7 5 3 10 2 3 4 2 8 8 10 10 14 15
16 17 18 19 20 21 23 23 22 22 19 8 5 6 8 8 7 1 4 6 6 7 6 7 3 5 8 6 7 4 3 7 6 4 3 2 6 9 7 3 1 8 11 10 9 6 14
14 16 17 19 20 21 22 22 22 22 22 4 4 3 9 6 1 2 6 4 2 5 4 4 5 6 6 4 7 4 5 7 9 5 3 4 5 9 8 6 1 4 6 9 11 12 6
14 15 16 18 20 21 23 23 22 18 14 5 2 5 7 8 3 7 6 9 11 8 10 4 5 7 2 4 5 7 6 5 6 4 4 4 4 9 10 9 5 4 1 4 9 8 12
13 15 16 18 19 21 22 22 21 18 10 5 2 1 5 6 4 6 6 6 6 8 12 8 5 3 4 7 4 9 10 5 5 6 5 6 1 8 0 9 4 7 3 1 9 11 8
12 14 16 17 18 20 21 22 23 19 12 5 5 5 4 4 7 8 7 3 6 4 5 7 5 7 4 4 8 6 5 10 8 3 2 5 3 2 8 6 4 2 2 2 1 6 6
11 12 14 16 17 19 20 21 22 23 18 3 2 2 4 5 2 6 4 8 8 7 6 7 8 8 4 7 7 7 7 1 5 2 2 2 3 2 2 2 1 5 4 2 2 4 7
10 11 13 15 16 18 19 20 22 24 16 5 2 2 4 1 3 3 7 4 6 4 8 8 4 5 9 8 8 6 6 5 5 3 3 1 6 6 5 2 3 9 11 7 6 3 6
9 10 12 13 14 16 17 17 18 20 14 4 4 4 1 4 3 6 8 9 9 8 9 7 5 1 5 3 6 5 5 5 3 3 3 4 6 3 3 5 9 9 4 1 6 8 4
9 8 10 12 12 14 15 15 14 15 16 4 3 4 3 3 5 6 5 7 8 6 7 7 8 6 5 6 5 7 5 5 5 1 2 5 5 4 5 10 6 7 6 6 12 11 4
8 7 9 10 11 12 14 14 14 14 14 4 5 4 3 0 4 4 5 3 1 3 7 7 6 3 5 4 2 5 3 1 5 6 4 5 5 7 6 4 6 10 8 4 2 8 6
8 6 7 8 9 10 12 12 13 13 13 6 4 4 5 2 5 4 1 1 2 1 1 5 6 5 6 3 2 2 3 3 4 6 7 8 6 10 9 6 2 7 8 6 8 8 8
8 5 6 7 6 8 10 11 11 12 13 6 4 4 6 3 5 6 4 4 4 4 1 7 6 5 4 4 3 3 2 4 4 2 5 8 6 6 6 6 7 11 9 6 9 8 7
8 5 5 5 5 6 7 9 10 11 12 8 1 1 3 5 6 2 4 3 4 1 1 5 5 2 2 2 2 3 3 5 5 4 5 6 4 3 5 3 6 11 6 7 3 1 4
Wind_Direction
24 12 6 358 353 349 346 344 341 338 336 334 331 331 331 328 326 322 322 320 316 313 309 301 291 267 247 216 308 78 149 155 168 179 181 179 185 199 201 194 161 238 153 191 221 180 52
11 6 359 358 353 351 346 342 339 338 335 331 331 326 329 326 322 322 318 315 309 305 298 287 266 230 248 229 26 129 150 160 170 182 180 190 199 196 195 208 222 189 243 272 295 206 146
5 0 357 354 351 347 345 342 340 338 334 327 327 325 326 323 319 319 316 310 304 292 281 262 237 244 238 42 84 142 154 167 167 184 178 195 224 205 176 174 213 219 233 174 98 128 151
1 357 355 352 350 349 344 340 338 335 329 325 323 322 323 321 318 320 317 311 301 275 248 228 216 239 270 43 148 150 152 145 164 185 186 153 218 200 235 73 209 219 230 188 137 153 142
356 354 352 349 348 346 343 338 335 330 324 322 319 322 321 321 320 319 319 313 346 118 180 187 204 252 136 144 173 151 165 161 159 154 161 178 193 215 179 208 189 204 189 160 144 155 155
354 352 349 348 346 342 338 336 335 328 323 321 321 319 319 318 321 316 308 292 47 139 172 204 259 228 171 185 150 154 159 163 169 148 153 185 196 198 216 207 194 185 184 170 139 163 181
353 350 348 347 342 341 338 335 329 327 326 326 322 320 321 323 324 313 278 188 189 169 207 294 125 303 130 109 144 167 154 159 176 190 183 189 200 203 190 209 333 179 186 156 105 150 186
354 348 347 346 345 341 336 334 330 327 328 323 321 320 326 326 325 316 234 290 28 354 253 216 241 253 222 170 157 160 169 155 174 186 180 174 218 192 184 171 192 199 167 140 134 113 228
349 346 345 346 344 339 334 331 327 326 325 324 323 328 325 321 319 217 285 21 322 242 251 145 191 201 175 200 164 164 192 163 183 181 195 200 188 154 195 184 194 196 191 163 159 153 185
346 348 347 343 343 337 334 329 326 330 331 329 331 329 327 320 260 110 203 345 307 209 246 122 181 165 170 215 160 168 197 172 176 193 195 220 139 183 190 192 209 177 232 160 172 200 184
348 349 347 343 343 336 332 328 326 332 333 330 333 326 323 288 328 252 24 325 215 226 189 145 135 111 154 214 131 175 195 205 182 166 198 175 181 188 190 192 206 187 166 197 194 221 200
346 346 345 342 344 335 331 328 328 336 335 331 332 324 315 195 225 312 297 295 227 232 98 138 145 174 176 161 171 149 188 235 190 168 221 129 194 194 189 176 203 120 175 174 198 217 221
344 344 343 343 339 334 331 328 330 336 337 334 328 317 248 309 334 322 292 221 222 352 184 94 111 195 173 149 143 167 182 189 187 180 183 161 162 125 275 197 195 199 180 172 194 200 228
342 342 343 340 338 335 333 331 331 336 337 334 323 304 173 288 303 288 233 231 28 75 19 86 153 192 143 145 138 148 167 153 76 288 166 169 164 189 233 250 191 206 206 192 190 195 167
341 342 340 343 339 334 334 332 333 338 338 332 315 193 264 0 316 261 253 359 25 13 357 344 173 170 140 135 145 129 98 90 34 351 287 191 102 132 62 304 278 191 224 328 277 205 201
340 341 341 341 339 334 333 337 335 340 338 333 275 245 39 347 271 242 294 73 83 7 332 288 188 283 158 131 156 135 119 39 57 23 316 82 132 164 101 212 163 281 216 203 238 187 213
339 342 336 341 339 334 335 337 338 339 337 335 244 252 37 346 247 299 64 69 71 37 353 2 34 123 105 114 95 85 53 85 17 11 335 281 263 137 194 307 157 172 206 238 263 281 219
337 340 338 340 339 336 337 338 342 344 334 271 300 275 14 312 239 33 59 22 292 29 22 78 53 55 69 119 110 104 122 28 350 320 67 23 278 168 103 121 191 299 329 264 228 196 259
334 340 342 339 340 338 340 340 343 352 350 311 38 26 28 279 81 95 115 96 52 40 34 40 50 34 44 99 120 118 110 72 12 33 21 3 192 158 166 168 178 215 133 265 272 288 207
332 341 343 340 340 340 342 340 342 350 349 288 286 122 75 53 32 83 107 53 102 44 55 53 50 87 126 79 83 147 130 86 62 74 2 270 87 325 326 61 66 159 141 326 272 235 202
334 341 340 341 342 342 341 344 343 349 344 278 346 65 359 45 53 78 84 81 80 79 65 24 64 42 11 126 113 124 130 139 92 53 56 332 136 51 61 59 71 101 106 43 56 348 284
329 333 339 343 347 343 344 345 348 349 337 30 43 105 96 82 90 100 119 69 74 89 356 54 82 49 50 80 356 136 138 67 44 73 68 353 134 154 107 56 15 238 176 147 116 102 93
319 327 340 343 349 348 346 349 352 359 339 51 66 103 302 159 111 69 46 61 79 92 67 58 85 104 83 62 60 68 49 62 70 11 79 322 155 207 182 163 262 233 216 197 134 162 153
309 324 338 345 351 351 347 349 358 4 1 348 29 293 342 89 59 75 108 95 87 72 105 76 56 93 81 130 138 113 94 81 70 65 345 179 184 213 143 190 223 77 86 175 176 120 140
302 319 336 343 352 352 350 346 0 6 359 20 22 313 3 86 91 129 127 116 125 129 95 88 69 54 154 194 158 156 156 173 110 74 186 282 213 167 220 215 84 166 184 178 182 145 127
294 311 333 344 350 352 350 349 358 5 5 310 44 315 310 114 137 124 147 190 153 131 150 108 107 109 196 223 164 235 161 193 160 147 219 185 273 249 194 232 230 79 135 148 181 175 147
293 305 325 344 353 352 348 353 358 1 2 319 56 0 282 308 130 190 213 91 87 106 73 140 153 162 228 194 196 233 163 331 213 190 178 181 207 222 209 232 211 109 141 165 218 88 134
286 290 316 339 353 354 344 345 350 357 1 323 73 24 324 315 127 208 183 166 163 233 199 113 191 185 187 171 213 153 203 206 272 227 189 191 199 201 218 224 229 150 148 230 90 124 129
276 270 299 335 347 360 338 332 343 352 357 340 275 82 324 271 31 310 261 297 286 1 129 172 18 147 76 118 212 143 171 168 208 217 203 233 252 262 239 51 109 164 57 105 119 166 157